DELTA 1 DEB, 7142

Orbit data source: Space-Track

DELTA 1 DEB, 7142 is space debris in SSO originally from a launch on Tue, 06 Nov 1973 UTC launched from the Air Force Western Test Range (AFWTR). Debris objects in space refer to the collection of defunct objects orbiting the Earth. Examples of debris include non-operational satellites, rocket bodies, and fragments generated from explosions, collisions, or faulty payload assembly.

Loading next visibility...
Identifier
7142, 1973-086DG
Orbit
SSO
Country
Flag of USUS
Related business
Manufacturer
Unknown
Mission
Spacecraft
Bus & Motor
Unknown
Mass
Unknown
Launch date (UTC)
1973-11-06 (52 years ago)
Launch vehicle
Unknown
Launch site
Air Force Western Test Range (AFWTR)
Object type
Payload
Rocket body
Debris
Shape & HBR
Unknown shape, 0.3 m
Radar Cross Section
Medium (>0.1 m² and <1 m²)

Expand to show TLE details & history
Last TLE update: 12 hours ago

TLE from 12 hours ago
0 DELTA 1 DEB
1 07142U 73086DG  25346.86992924  .00000023  00000-0  53792-3 0  9991
2 07142 101.8133 320.3253 0045344   8.9567  46.4539 12.32066545342572
Epoch: 2025-12-12T20:52Z
TLE epoch observation values (Epoch: 2025-12-12T20:52:41.886Z)
Latitude
54.13662°
Longitude
-91.38749°
Altitude
1,524.448 km
Speed
7.119 km/s
True Right ascension
20h 14m 22s
True Declination
53° 59' 21"
Sunlit
Object was in daylight at epoch
Visualization orbit readout
Latitude
Unknown
Longitude
Unknown
Altitude
Unknown
Speed
Unknown
Apparent Right ascension
Unknown
Apparent Declination
Unknown
Sunlit
N/A
Visualization observer readout
Local Sidereal Time
07:05:49
Azimuth
Unknown
Elevation
Unknown
Doppler factor
Unknown
Orbital elements
Apogee altitude
1,573.883 km
Perigee altitude
1,502.093 km
Semi-major axis
7,916.125 km
Eccentricity
0.00453
Inclination
101.8133°
RAAN
320.3253°
Arg. of periapsis
8.9567°
True anomaly
46.83199°
Mean anomaly
46.4539°
Eccentric anomaly
46.6428°
Mean motion
3.08159 °/min
Orbital period
116.82 mins
BSTAR
0.00053792
Loading maneuver chart data...
Computing Atmospheric mass density...
Loading historical data...
Loading historical data...
Loading historical data...
Loading historical data...
Loading historical data...
Loading historical data...
Loading historical data...

Documentation

Showing up to 5 results
|